#timestamp,LO_Frequency,Hit,StdDev 
1622008815.2,286046996.6,N
1622008835.0,286046998.3,N
1622008835.9,286046998.3,N
1622008855.8,286046999.4,N
1622008875.6,286046999.6,N
1622008895.5,286046998.8,N
1622008915.3,286047000.2,N
1622008935.1,286047000.0,N
1622008955.9,286046998.3,N
1622008975.7,286046999.3,N
1622008995.5,286046996.9,N
1622009015.4,286047000.7,N
1622009035.2,286047000.7,N
1622009055.1,286046999.2,N
1622009056.0,286046999.2,N
1622009075.8,286046995.0,Y
1622009095.6,286047000.7,P
1622009115.5,286046996.8,P
1622009135.3,286046997.4,N
1622009155.1,286046997.1,N
1622009175.9,286046998.2,N
1622009195.7,286046998.4,N
1622009215.6,286046998.4,N
1622009235.4,286046999.9,N
1622009255.2,286046999.4,N
1622009275.1,286047000.4,N
1622009276.0,286047000.4,N
1622009295.8,286047000.2,N
1622009315.7,286046999.4,N
1622009335.5,286047001.2,N
1622009355.3,286047001.0,N
1622009375.2,286046999.9,N
1622009395.0,286047002.1,N
1622009395.9,286047002.1,N
1622009415.7,286047004.1,N
1622009435.6,286047002.8,N
1622009455.4,286047000.9,N
1622009475.3,286047000.2,N
1622009495.1,286047001.0,N
1622009496.0,286047001.0,N
1622009515.8,286046999.2,N
1622009535.7,286047000.9,N
1622009555.5,286047002.1,N
1622009575.3,286046999.0,N
1622009595.2,286046997.4,N
1622009615.0,286046999.3,N
1622009615.9,286046999.3,N
1622009635.8,286046998.7,N
1622009655.6,286047002.7,N
1622009675.4,286047002.0,N
1622009695.3,286047001.8,N
1622009715.1,286047002.6,N
1622009735.8,286047002.5,N
1622009755.7,286047003.4,N
1622009775.5,286047002.8,N
1622009795.4,286047004.2,N
1622009815.2,286047003.3,N
1622009835.0,286047003.3,N
1622009835.9,286047003.3,N
1622009855.8,286047005.9,Y
1622009875.6,286047003.9,P
1622009895.5,286047001.9,N
1622009915.3,286047001.9,N
1622009935.1,286047001.6,N
1622009955.9,286046999.7,N
1622009975.7,286047001.1,N
1622009995.5,286047001.0,N
1622010015.4,286046997.5,N
1622010035.2,286046997.8,N
1622010055.0,286046996.6,N
1622010056.0,286046996.6,N
1622010075.8,286046996.6,N
1622010095.6,286046999.5,N
1622010115.5,286046996.8,N
1622010135.3,286046995.5,N
1622010155.1,286046996.2,N
1622010175.9,286046993.4,N
1622010195.7,286046994.3,N
1622010215.6,286046994.8,N
1622010235.4,286046996.3,N
1622010255.2,286046992.1,N
1622010275.1,286046992.1,N
1622010276.0,286046992.1,N
1622010295.8,286046992.3,N
1622010315.6,286046991.7,N
1622010335.5,286046992.5,N
1622010355.3,286046990.7,N
1622010375.2,286046992.4,N
1622010395.9,286046994.6,N
1622010415.7,286046993.8,N
1622010435.6,286046993.5,N
1622010455.4,286046991.9,N
1622010475.2,286046993.0,N
1622010495.1,286046990.6,Y
1622010496.0,286046990.6,P
1622010515.8,286046998.0,N
1622010535.7,286046997.1,N
1622010555.5,286046997.6,N
1622010575.3,286046995.4,N
1622010595.2,286046999.0,N
1622010615.0,286047004.1,N
1622010615.9,286047004.1,N
1622010635.7,286047000.9,N
1622010655.6,286046997.0,N
1622010675.4,286046998.8,N
1622010695.3,286046999.8,N
1622010715.1,286046999.6,N
1622010716.0,286046999.6,N
1622010735.8,286046997.7,N
1622010755.7,286046996.5,N
1622010775.5,286046997.2,N
1622010795.3,286046997.0,N
1622010815.2,286046999.5,N
1622010835.0,286046999.4,N
1622010835.9,286046999.4,N
1622010855.8,286046996.8,N
1622010875.6,286046997.5,N
1622010895.4,286046996.6,N
1622010915.3,286046996.7,N
1622010935.1,286046997.0,N
1622010955.8,286046997.6,N
1622010975.7,286046996.3,N
1622010995.5,286046997.1,N
1622011015.4,286046999.4,N
1622011035.2,286046996.5,N
1622011055.0,286046999.2,N
1622011055.9,286046999.2,N
1622011075.8,286047001.2,N
1622011095.6,286046999.1,N
1622011115.4,286046995.4,N
1622011135.3,286046995.8,N
1622011155.1,286046993.3,Y
1622011175.9,286046995.2,P
1622011195.7,286046995.3,P
1622011215.5,286046996.7,N
1622011235.4,286046996.9,N
1622011255.2,286046996.6,Y
1622011275.1,286047001.9,P
1622011276.0,286047001.9,N
1622011295.8,286047000.1,N
1622011315.6,286047002.3,N
1622011335.5,286047003.9,N
1622011355.3,286047001.5,N
1622011375.1,286047002.7,N
1622011395.9,286047002.7,N
1622011415.7,286047003.7,N
1622011435.6,286047005.7,N
1622011455.4,286047003.8,N
1622011475.2,286047003.0,N
1622011495.1,286047006.0,N
1622011496.0,286047006.0,N
1622011515.8,286047003.7,N
1622011535.7,286047000.9,N
1622011555.5,286046999.8,N
1622011575.3,286047000.2,N
1622011595.2,286047004.4,N
1622011615.0,286047002.2,N
1622011615.9,286047002.2,N
1622011635.7,286047002.1,N
1622011655.6,286047004.0,N
1622011675.4,286047003.0,N
1622011695.3,286047003.0,N
1622011715.1,286047003.4,N
1622011735.9,286047007.5,Y
1622011755.7,286047003.8,P
1622011775.5,286047001.3,N
1622011795.4,286047006.0,P
1622011815.2,286047006.0,Y
1622011835.0,286047000.2,P
1622011835.9,286047000.2,N
1622011855.8,286047000.8,N
1622011875.6,286047000.4,N
1622011895.5,286046998.4,N
1622011915.3,286047000.0,N
1622011935.1,286046998.4,N
1622011955.9,286046997.3,N
1622011975.7,286047000.9,N
1622011995.5,286047001.0,N
1622012015.4,286046999.8,N
1622012035.2,286047002.7,N
1622012055.0,286047001.9,N
1622012056.0,286047001.9,N
1622012075.8,286047002.7,N
1622012095.6,286047000.5,N
1622012115.5,286046998.2,N
1622012135.3,286047000.0,N
1622012155.1,286047000.4,N
1622012175.9,286047001.6,N
1622012195.7,286047002.3,N
1622012215.6,286047002.8,N
1622012235.4,286047001.3,N
1622012255.2,286047000.5,N
1622012275.1,286047001.0,N
1622012276.0,286047001.0,N
1622012295.8,286047000.4,N
1622012315.6,286047002.0,N
1622012335.5,286047002.5,N
1622012355.3,286047001.9,N
1622012375.2,286047002.2,N
1622012395.9,286047000.2,N
